Miscellaneous Local Product
Issued by NWS North Platte, NE

Home | Current Version | Previous Version | Text Only | Print | Product List | Glossary On
Versions: 1 2 3 4 5 6 7 8 9 10 11 12 13 14 15 16 17 18 19 20 21 22 23 24 25 26 27 28 29 30 31 32 33 34 35 36 37 38 39 40 41 42 43 44 45 46 47 48 49 50
000
AXUS43 KLBF 191810
MISLBF


WESTERN AND NORTH CENTRAL NEBRASKA HOURLY WEATHER ROUNDUP
NATIONAL WEATHER SERVICE NORTH PLATTE NE
1200 PM CST THU JAN 19 2017

NOTE: "FAIR" INDICATES FEW OR NO CLOUDS BELOW 12,000 FEET WITH NO
SIGNIFICANT WEATHER AND/OR OBSTRUCTIONS TO VISIBILITY.

NOTE: STATIONS NOT REPORTING VARIABLES SUCH AS SKY/WEATHER OR
PRESSURE ARE PROVIDED BY RAWS AND APRS NETWORKS AND ARE NOT UNDER
NATIONAL WEATHER SERVICE QUALITY CONTROL.

...OBSERVATIONS IN AND NEAR THE EASTERN PANHANDLE OF NEBRASKA...

CITY           SKY/WX    TMP DP  RH WIND       PRES   REMARKS
PINE RIDGE     CLOUDY    38  25  59 SW15      29.52F WCI  29
CHADRON        SUNNY     38  23  55 SW10      29.54F WCI  31
ALLIANCE       SUNNY     46  26  45 W7        29.55F
SIDNEY         SUNNY     46  27  47 W5        29.58F
CRESCENT LAKE    N/A     42  27  54 S3          N/A
$$

...OBSERVATIONS IN NORTHERN NEBRASKA AND FAR SOUTHERN SOUTH DAKOTA...

CITY           SKY/WX    TMP DP  RH WIND       PRES   REMARKS
WINNER         FAIR      43  33  68 S15       29.55F
VALENTINE      SUNNY     50  21  32 SW14      29.54F
THEDFORD       CLOUDY    33  32  99 S12       29.60F FOG     WCI  24
AINSWORTH      CLOUDY    36  36 100 S14       29.57F FOG     WCI  27
O`NEILL        CLOUDY    42  42  99 S15       29.61F
ORD            CLOUDY    39  38  96 SE7       29.62F FOG     WCI  34
BROKEN BOW     CLOUDY    40  40 100 S8        29.61F FOG     WCI  34
VALENTINE NWR    N/A     38  29  71 S12         N/A  WCI  30
BUTTE            N/A     37  36  97 S14G24      N/A  WCI  28
HALSEY           N/A     35  35 100 S7G14       N/A  WCI  29
SARGENT          N/A     39  30  70 CALM        N/A
CHAMBERS         N/A     42  41  98 S5          N/A
EWING            N/A     41  40  97 S7          N/A
$$

...OBSERVATIONS IN SOUTHWEST NEBRASKA AND FAR NORTHEAST COLORADO...

CITY           SKY/WX    TMP DP  RH WIND       PRES   REMARKS
WRAY           FAIR      41  27  56 N3        29.61F
HOLYOKE        FAIR      45  30  57 CALM      29.61F
IMPERIAL       SUNNY     35  28  75 SE6       29.62F WCI  30
OGALLALA       SUNNY     36  28  73 CALM      29.60F
NORTH PLATTE   FOG       35  34  96 W7        29.63F VSB 1/2 WCI  29
MCCOOK         CLOUDY    38  38 100 CALM      29.63F FOG
LEXINGTON      FOG       40  39  95 CALM      29.62F VSB 1/2
STAPLETON        N/A     34  33  96 CALM        N/A
GOTHENBURG       N/A     40  39  95 CALM        N/A
CALLAWAY         N/A     39  38  97 SW12        N/A  WCI  32
$$

...OBSERVATIONS IN CENTRAL LINCOLN COUNTY AREA...

CITY           SKY/WX    TMP DP  RH WIND       PRES   REMARKS
N.P. AIRPORT   FOG       35  34  96 W7        29.63F VSB 1/2 WCI  29
N.P. DOWNTOWN    N/A     31  31 100 W3          N/A
N.P. SOUTHEAST   N/A     31  30  96 CALM        N/A
N.P. HILLCREST   N/A     30  29  97 W3          N/A
$$

...SOME OBSERVATIONS FROM AROUND THE REGION...

CITY           SKY/WX    TMP DP  RH WIND       PRES   REMARKS
LARAMIE        CLOUDY    28  16  60 NE7       29.66F WCI  21
CHEYENNE       SUNNY     50  14  23 S7        29.60S
DENVER         MOSUNNY   49  23  36 SE8       29.59F
AKRON          SUNNY     39  25  57 W10       29.60F WCI  32
SCOTTSBLUFF    SUNNY     43  27  53 CALM      29.57F
RAPID CITY     CLOUDY    43  27  53 N7        29.47F
BISMARCK       CLOUDY    20  14  77 SE6       29.54S WCI  12
PIERRE         CLOUDY    21  19  92 CALM      29.53F
SIOUX FALLS    FOG       36  36 100 S14       29.68F VSB 1/4 WCI  27
OMAHA          CLOUDY    41  38  89 SE10      29.76F FOG
GRAND ISLAND   CLOUDY    40  40 100 SE7       29.66F FOG
KANSAS CITY    CLOUDY    47  43  86 S8        29.76F
WICHITA        CLOUDY    48  45  89 SE13      29.67F
OKLAHOMA CITY  CLOUDY    51  45  79 S16       29.67F
DALLAS         MOSUNNY   58  50  75 S14       29.76F
AMARILLO       SUNNY     52  25  35 NW16      29.61F
DODGE CITY     CLOUDY    43  39  86 SE8       29.60F
HAYS           CLOUDY    45  42  89 S13       29.63F
GOODLAND       FOG       32  32 100 S6        29.61F VSB 1/4 WCI  26
$$




USA.gov is the U.S. government's official web portal to all federal, state and local government web resources and services.